This demonstration page uses our WeatherBlox Daily Observations layout. Learn more.

Left ArrowRight Arrow

Hourly Observations for June 29, 2021

Temp ( °F °C ) Dew Point ( °F °C ) Humidity (%) Winds ( mph kmh ) Pressure ( in mb ) Visibility ( mi km ) Precip ( " mm )
12:53 am 00:53 Clear 67 19.4 46 7.8 47 47 ENE 9 15 30.00 1016 10 16 N/A
1:53 am 01:53 Clear 65 18.3 46 7.8 51 51 ENE 12 19 30.00 1016 10 16 N/A
2:53 am 02:53 Clear 63 17.2 46 7.8 54 54 ENE 12 19 30.00 1016 10 16 N/A
3:53 am 03:53 Clear 60 15.6 45 7.2 58 58 ENE 9 15 30.01 1016 10 16 N/A
4:53 am 04:53 Clear 58 14.4 45 7.2 62 62 E 10 17 30.01 1016 10 16 N/A
5:53 am 05:53 Sunny 58 14.4 46 7.8 65 65 N N/A 30.02 1017 10 16 N/A
6:53 am 06:53 Sunny 60 15.6 46 7.8 60 60 WSW 3 6 30.04 1017 10 16 N/A
7:53 am 07:53 Sunny 66 18.9 46 7.8 49 49 VRB 3 6 30.04 1017 10 16 N/A
8:53 am 08:53 Sunny 71 21.7 47 8.3 42 42 SSE 3 6 30.04 1017 10 16 N/A
9:53 am 09:53 Sunny 78 25.6 47 8.3 33 33 N N/A 30.03 1017 10 16 N/A
10:53 am 10:53 Sunny 86 30 48 8.9 27 27 VRB 3 6 30.01 1016 10 16 N/A
11:53 am 11:53 Sunny 89 31.7 45 7.2 22 22 undefined N/A 30.00 1016 10 16 N/A
12:53 pm 12:53 Sunny 93 33.9 41 5 16 16 VRB 5 7 29.98 1015 10 16 N/A
1:53 pm 13:53 Sunny 96 35.6 38 3.3 13 13 undefined N/A 29.97 1015 10 16 N/A
2:53 pm 14:53 Sunny 97 36.1 37 2.8 12 12 E 7 11 29.97 1015 10 16 N/A
3:53 pm 15:53 Sunny 99 37.2 37 2.8 12 12 ENE 8 13 29.96 1015 10 16 N/A
4:53 pm 16:53 Sunny 98 36.7 39 3.9 13 13 ENE 8 13 29.95 1014 10 16 N/A
5:53 pm 17:53 Sunny 98 36.7 38 3.3 12 12 ENE 18 30 29.94 1014 10 16 N/A
6:53 pm 18:53 Sunny 96 35.6 39 3.9 14 14 E 15 24 29.94 1014 10 16 N/A
7:53 pm 19:53 Sunny 93 33.9 40 4.4 16 16 E 15 24 29.93 1014 10 16 N/A
8:53 pm 20:53 Sunny 87 30.6 42 5.6 21 21 E 13 20 29.94 1014 10 16 N/A
9:53 pm 21:53 Clear 78 25.6 46 7.8 32 32 E 9 15 29.95 1014 10 16 N/A
10:53 pm 22:53 Clear 82 27.8 42 5.6 24 24 ESE 12 19 29.94 1014 10 16 N/A
11:53 pm 23:53 Clear 77 25 44 6.7 31 31 E 6 9 29.94 1014 10 16 N/A

Powered by AerisWeather